リニア彗星

C/1999 S3 ( LINEAR )

English version
Home page
Updated on November 11, 2005

---------------------------------------------------------------------

・ プロフィール

発見日 1999年 9月24日
発見光度 15.7等
発見者 Lincoln Laboratory Near-Earth Asteroid Research project

・ 写真集

・ 軌道要素

   The following improved orbital elements by Kenji Muraoka, are
  from 616 observations 1999 Sept. 24 to 2000 Feb. 29, perturbations
  by 9 Planets, Moon and 5 minor planets were taken into account.
   The mean residual is +/- 0.57 arc seconds.

      Epoch  =  1999 Oct. 29.0  TT       JDT = 2451480.5
          T  =  1999 Nov.  9.01313       +/- 0.00068 (m.e.) TT
       Peri. =   44.12690                +/- 0.00030
       Node  =   11.87847                +/- 0.00015   (2000.0)
       Incl. =   70.56147                +/- 0.00014
          q  =    1.8949606              +/- 0.0003042 AU
          e  =    0.8999951              +/- 0.0000112
          a  =   18.9486696              +/- 0.0021711 AU
          n  =    0.01194912             +/- 0.00000205
          P  =   82.484                  +/- 0.0141763  years
                                        (+/- 5.2 days)

・ 星図

・ 光度変化

        m1 = -5.5 + 5 logΔ + 60 log r(t - 15)

---------------------------------------------------------------------

軌道要素は村岡健治氏の計算によるものです。
星図は StellaNavigator Ver.2.0 for Windows (アストロアーツ 編著 / アスキー出版局刊) で作成したものです。
光度グラフはComet for Windowsで作成したものです。

---------------------------------------------------------------------

Copyright(C) Seiichi Yoshida (comet@aerith.net). All rights reserved.